Time,TemperatureF,DewpointF,PressureIn,WindDirection,WindDirectionDegrees,WindSpeedMPH,WindSpeedGustMPH,Humidity,HourlyPrecipIn,Conditions,Clouds,dailyrainin,SoftwareType,DateUTC
2013-10-14 00:04:00,62.0,61.0,30.14,North,0,0.0,1.0,98,0.01,,,0.07,,2013-10-14 04:04:00,
2013-10-14 00:14:00,62.0,61.0,30.14,North,0,0.0,1.0,98,0.01,,,0.07,,2013-10-14 04:14:00,
2013-10-14 00:24:00,62.0,61.0,30.14,North,0,0.0,3.0,98,0.00,,,0.06,,2013-10-14 04:24:00,
2013-10-14 00:44:00,62.0,61.0,30.14,North,0,0.0,5.0,98,0.00,,,0.06,,2013-10-14 04:44:00,
2013-10-14 00:54:00,62.0,61.0,30.14,North,0,0.0,1.0,98,0.00,,,0.06,,2013-10-14 04:54:00,
2013-10-14 01:23:00,62.0,61.0,30.13,North,0,0.0,0.0,98,0.00,,,0.06,,2013-10-14 05:23:00,
2013-10-14 01:52:00,63.0,62.0,30.14,North,0,0.0,1.0,98,0.01,,,0.07,,2013-10-14 05:52:00,
2013-10-14 02:22:00,63.0,62.0,30.14,North,0,0.0,3.0,98,0.01,,,0.07,,2013-10-14 06:22:00,
2013-10-14 02:52:00,63.0,62.0,30.14,North,0,0.0,1.0,98,0.01,,,0.07,,2013-10-14 06:52:00,
2013-10-14 03:22:00,62.0,61.0,30.13,North,0,0.0,2.0,98,0.03,,,0.09,,2013-10-14 07:22:00,
2013-10-14 03:42:00,62.0,61.0,30.13,North,0,0.0,0.0,98,0.04,,,0.11,,2013-10-14 07:42:00,
2013-10-14 03:52:00,62.0,61.0,30.12,North,0,0.0,5.0,98,0.04,,,0.11,,2013-10-14 07:52:00,
2013-10-14 04:22:00,62.0,61.0,30.13,North,0,0.0,1.0,98,0.02,,,0.11,,2013-10-14 08:22:00,
2013-10-14 04:52:00,62.0,61.0,30.14,North,0,0.0,5.0,98,0.01,,,0.12,,2013-10-14 08:52:00,
2013-10-14 05:22:00,62.0,61.0,30.14,North,0,0.0,3.0,98,0.02,,,0.13,,2013-10-14 09:22:00,
2013-10-14 05:43:00,62.0,61.0,30.14,North,0,0.0,3.0,98,0.02,,,0.13,,2013-10-14 09:43:00,
2013-10-14 05:53:00,62.0,61.0,30.14,North,0,0.0,3.0,98,0.01,,,0.13,,2013-10-14 09:53:00,
2013-10-14 06:23:00,61.0,60.0,30.15,North,0,0.0,3.0,98,0.00,,,0.13,,2013-10-14 10:23:00,
2013-10-14 06:53:00,61.0,60.0,30.15,North,0,0.0,2.0,98,0.00,,,0.13,,2013-10-14 10:53:00,
2013-10-14 07:22:00,61.0,60.0,30.15,North,0,0.0,2.0,98,0.00,,,0.13,,2013-10-14 11:22:00,
2013-10-14 07:42:00,61.0,60.0,30.15,North,0,0.0,2.0,98,0.00,,,0.13,,2013-10-14 11:42:00,
2013-10-14 07:52:00,61.0,60.0,30.15,North,0,0.0,2.0,98,0.00,,,0.13,,2013-10-14 11:52:00,
2013-10-14 08:22:00,61.0,60.0,30.16,North,0,0.0,5.0,98,0.00,,,0.13,,2013-10-14 12:22:00,
2013-10-14 08:42:00,61.0,60.0,30.16,North,0,0.0,2.0,98,0.00,,,0.13,,2013-10-14 12:42:00,
2013-10-14 08:52:00,61.0,60.0,30.17,North,0,0.0,5.0,98,0.00,,,0.13,,2013-10-14 12:52:00,
2013-10-14 09:11:00,61.0,60.0,30.17,North,0,0.0,3.0,98,0.00,,,0.13,,2013-10-14 13:11:00,
2013-10-14 09:22:00,61.0,60.0,30.18,North,0,0.0,2.0,97,0.00,,,0.13,,2013-10-14 13:22:00,
2013-10-14 09:42:00,61.0,60.0,30.18,North,0,0.0,4.0,97,0.00,,,0.13,,2013-10-14 13:42:00,
2013-10-14 09:52:00,61.0,60.0,30.19,North,0,0.0,6.0,97,0.00,,,0.13,,2013-10-14 13:52:00,
2013-10-14 10:11:00,61.0,60.0,30.19,North,0,0.0,7.0,97,0.00,,,0.13,,2013-10-14 14:11:00,
2013-10-14 10:22:00,62.0,61.0,30.19,North,0,0.0,3.0,96,0.00,,,0.13,,2013-10-14 14:22:00,
2013-10-14 10:42:00,62.0,61.0,30.18,North,0,0.0,3.0,97,0.00,,,0.13,,2013-10-14 14:42:00,
2013-10-14 10:52:00,62.0,61.0,30.18,North,0,0.0,6.0,96,0.00,,,0.13,,2013-10-14 14:52:00,
2013-10-14 11:22:00,62.0,61.0,30.17,North,0,0.0,7.0,95,0.00,,,0.13,,2013-10-14 15:22:00,
2013-10-14 11:54:00,62.0,61.0,30.17,North,0,0.0,4.0,95,0.00,,,0.13,,2013-10-14 15:54:00,
2013-10-14 12:23:00,64.0,62.0,30.17,NW,311,1.0,5.0,93,0.00,,,0.13,,2013-10-14 16:23:00,
2013-10-14 12:53:00,64.0,61.0,30.17,North,0,0.0,5.0,91,0.00,,,0.13,,2013-10-14 16:53:00,
2013-10-14 13:22:00,64.0,61.0,30.16,NNW,333,1.0,6.0,91,0.00,,,0.13,,2013-10-14 17:22:00,
2013-10-14 13:52:00,64.0,61.0,30.15,North,0,0.0,4.0,91,0.00,,,0.13,,2013-10-14 17:52:00,
2013-10-14 14:22:00,64.0,61.0,30.14,North,0,0.0,7.0,90,0.00,,,0.13,,2013-10-14 18:22:00,
2013-10-14 14:52:00,64.0,61.0,30.13,North,0,0.0,3.0,90,0.00,,,0.13,,2013-10-14 18:52:00,
2013-10-14 15:22:00,64.0,61.0,30.13,North,0,0.0,2.0,89,0.00,,,0.13,,2013-10-14 19:22:00,
2013-10-14 15:52:00,64.0,61.0,30.13,North,0,0.0,1.0,89,0.00,,,0.13,,2013-10-14 19:52:00,
2013-10-14 16:22:00,64.0,61.0,30.12,North,0,0.0,4.0,89,0.00,,,0.13,,2013-10-14 20:22:00,
2013-10-14 16:52:00,63.0,60.0,30.13,North,0,0.0,7.0,89,0.00,,,0.12,,2013-10-14 20:52:00,
2013-10-14 17:22:00,63.0,60.0,30.14,North,0,0.0,5.0,90,0.00,,,0.12,,2013-10-14 21:22:00,
2013-10-14 17:55:00,63.0,60.0,30.14,North,0,0.0,1.0,89,0.00,,,0.12,,2013-10-14 21:55:00,
2013-10-14 18:24:00,63.0,60.0,30.14,North,0,0.0,1.0,89,0.00,,,0.12,,2013-10-14 22:24:00,
2013-10-14 18:54:00,62.0,59.0,30.14,North,0,0.0,0.0,91,0.00,,,0.12,,2013-10-14 22:54:00,
2013-10-14 19:22:00,61.0,59.0,30.14,North,0,0.0,0.0,92,0.00,,,0.12,,2013-10-14 23:22:00,
2013-10-14 19:53:00,60.0,58.0,30.13,North,0,0.0,0.0,93,0.00,,,0.11,,2013-10-14 23:53:00,
2013-10-14 20:22:00,60.0,58.0,30.14,North,0,0.0,0.0,94,0.00,,,0.11,,2013-10-15 00:22:00,
2013-10-14 20:52:00,60.0,58.0,30.15,North,0,0.0,0.0,94,0.00,,,0.09,,2013-10-15 00:52:00,
2013-10-14 21:22:00,59.0,57.0,30.15,North,0,0.0,0.0,94,0.00,,,0.09,,2013-10-15 01:22:00,
2013-10-14 21:52:00,58.0,57.0,30.14,North,0,0.0,0.0,95,0.00,,,0.09,,2013-10-15 01:52:00,
2013-10-14 22:22:00,57.0,56.0,30.15,North,0,0.0,0.0,96,0.00,,,0.09,,2013-10-15 02:22:00,
2013-10-14 22:52:00,56.0,55.0,30.15,North,0,0.0,0.0,96,0.00,,,0.09,,2013-10-15 02:52:00,
2013-10-14 23:23:00,56.0,55.0,30.15,North,0,0.0,0.0,97,0.00,,,0.08,,2013-10-15 03:23:00,
2013-10-14 23:55:00,55.0,54.0,30.15,North,0,0.0,0.0,97,0.00,,,0.08,,2013-10-15 03:55:00,